EW4074 Weather Reports


Display with metric or nautical units.
time (UTC)temp
F
wind
direction
speed
MPH
gust
MPH
rain 1hr
in
rain 24hr
in
rain mn
in
humidity
%
barometer
mb
20260508182437 69 77 4.0 12.0 0.00 0.00 0.00 39 1040.6
20260508181931 69 120 4.0 14.0 0.00 0.00 0.00 41 1040.7
20260508181425 69 109 4.0 14.0 0.00 0.00 0.00 40 1040.7
20260508180919 68 117 4.0 10.0 0.00 0.00 0.00 39 1040.7
20260508180413 68 274 5.0 15.0 0.00 0.00 0.00 42 1040.8
20260508175907 67 269 5.0 15.0 0.00 0.00 0.00 41 1040.8
20260508175401 67 207 3.0 11.0 0.00 0.00 0.00 42 1040.8
20260508174848 67 301 3.0 7.0 0.00 0.00 0.00 39 1041.1
20260508174826 67 263 3.0 9.0 0.00 0.00 0.00 46 1041.1
20260508173843 66 299 4.0 11.0 0.00 0.00 0.00 43 1041.1
20260508173337 66 262 4.0 11.0 0.00 0.00 0.00 40 1040.8
20260508172831 67 257 3.0 9.0 0.00 0.00 0.00 42 1040.8
20260508172323 66 240 4.0 10.0 0.00 0.00 0.00 41 1040.8
20260508171819 66 224 3.0 10.0 0.00 0.00 0.00 43 1041.3
20260508171313 65 253 4.0 10.0 0.00 0.00 0.00 43 1041.3
20260508170807 66 261 5.0 13.0 0.00 0.00 0.00 41 1041.3
20260508170301 66 230 4.0 13.0 0.00 0.00 0.00 44 1041.5
20260508165755 66 286 4.0 12.0 0.00 0.00 0.00 45 1041.5
20260508165249 65 269 3.0 12.0 0.00 0.00 0.00 43 1041.5
20260508164739 66 229 3.0 11.0 0.00 0.00 0.00 45 1041.6
20260508164237 65 142 5.0 12.0 0.00 0.00 0.00 45 1041.6
20260508163731 66 230 5.0 12.0 0.00 0.00 0.00 42 1041.6
20260508163225 65 143 4.0 11.0 0.00 0.00 0.00 45 1041.8
20260508162719 65 263 5.0 16.0 0.00 0.00 0.00 42 1041.8
20260508162436 66 230 4.0 16.0 0.00 0.00 0.00 45 1041.8
20260508161709 67 238 3.0 9.0 0.00 0.00 0.00 44 1042.0
20260508161157 66 323 4.0 9.0 0.00 0.00 0.00 44 1042.0
20260508160916 66 121 5.0 11.0 0.00 0.00 0.00 45 1042.0
20260508160406 65 205 5.0 12.0 0.00 0.00 0.00 46 1041.8
20260508155643 65 275 4.0 12.0 0.00 0.00 0.00 46 1041.8
20260508155131 65 219 4.0 11.0 0.00 0.00 0.00 48 1041.8
20260508154851 64 226 4.0 11.0 0.00 0.00 0.00 48 1042.1
20260508154113 63 225 3.0 10.0 0.00 0.00 0.00 49 1042.1
20260508153840 63 234 4.0 12.0 0.00 0.00 0.00 46 1042.2
20260508153112 64 244 4.0 12.0 0.00 0.00 0.00 46 1042.2
20260508152612 64 281 4.0 13.0 0.00 0.00 0.00 49 1042.2
20260508152330 64 271 5.0 13.0 0.00 0.00 0.00 47 1042.4
20260508151612 64 267 4.0 12.0 0.00 0.00 0.00 49 1042.4
20260508151111 63 214 4.0 11.0 0.00 0.00 0.00 47 1042.4
20260508150615 64 217 4.0 9.0 0.00 0.00 0.00 48 1042.5
20260508150115 63 252 3.0 10.0 0.00 0.00 0.00 48 1042.5
20260508145609 63 180 4.0 10.0 0.00 0.00 0.00 45 1042.5
20260508145056 63 234 4.0 13.0 0.00 0.00 0.00 48 1042.7
20260508144555 62 167 5.0 16.0 0.00 0.00 0.00 47 1042.7
20260508144055 62 203 4.0 16.0 0.00 0.00 0.00 49 1042.7
20260508143556 62 286 4.0 11.0 0.00 0.00 0.00 46 1042.6
20260508143056 62 249 4.0 11.0 0.00 0.00 0.00 47 1042.6
20260508143042 62 221 4.0 8.0 0.00 0.00 0.00 47 1042.6
20260508142056 62 294 4.0 14.0 0.00 0.00 0.00 51 1042.8
20260508141556 62 259 4.0 14.0 0.00 0.00 0.00 47 1042.8
20260508141055 61 221 4.0 12.0 0.00 0.00 0.00 48 1042.8
20260508140550 61 249 4.0 11.0 0.00 0.00 0.00 49 1042.8
20260508140038 61 157 4.0 11.0 0.00 0.00 0.00 48 1042.8
20260508135537 61 242 3.0 11.0 0.00 0.00 0.00 50 1042.8
20260508135249 61 253 3.0 8.0 0.00 0.00 0.00 47 1042.9
20260508134526 61 271 2.0 8.0 0.00 0.00 0.00 51 1042.9
20260508134239 60 225 2.0 6.0 0.00 0.00 0.00 48 1042.9
20260508133513 60 238 2.0 6.0 0.00 0.00 0.00 51 1042.9
20260508133008 59 275 2.0 9.0 0.00 0.00 0.00 52 1042.9
20260508132937 59 200 3.0 9.0 0.00 0.00 0.00 52 1042.9
20260508131956 59 229 3.0 8.0 0.00 0.00 0.00 52 1042.9
20260508131445 59 255 3.0 8.0 0.00 0.00 0.00 50 1042.9
20260508130939 59 251 3.0 9.0 0.00 0.00 0.00 52 1042.9
20260508130434 58 188 2.0 9.0 0.00 0.00 0.00 53 1043.0
20260508125929 58 246 2.0 6.0 0.00 0.00 0.00 56 1043.0
20260508125417 57 248 2.0 6.0 0.00 0.00 0.00 58 1043.0
20260508124916 57 269 2.0 7.0 0.00 0.00 0.00 57 1043.1
20260508124410 56 236 2.0 7.0 0.00 0.00 0.00 58 1043.1
20260508123904 55 250 1.0 5.0 0.00 0.00 0.00 63 1043.1
20260508123358 54 122 1.0 5.0 0.00 0.00 0.00 64 1043.2
20260508122852 53 258 0.0 3.0 0.00 0.00 0.00 67 1043.2
20260508122347 51 134 0.0 2.0 0.00 0.00 0.00 72 1043.2
20260508121835 50 250 0.0 1.0 0.00 0.00 0.00 77 1043.1
20260508121333 49 250 0.0 2.0 0.00 0.00 0.00 73 1043.1
20260508120827 49 250 1.0 3.0 0.00 0.00 0.00 73 1043.1
20260508120540 49 231 1.0 3.0 0.00 0.00 0.00 74 1042.9
20260508115815 48 250 1.0 5.0 0.00 0.00 0.00 75 1042.9
20260508115309 46 255 1.0 5.0 0.00 0.00 0.00 78 1042.9
20260508115022 44 250 1.0 5.0 0.00 0.00 0.00 86 1042.8
20260508114257 41 275 0.0 4.0 0.00 0.00 0.00 94 1042.8
20260508113751 39 222 0.0 1.0 0.00 0.00 0.00 96 1042.8
20260508113241 38 222 0.0 0.0 0.00 0.00 0.00 96 1042.8
20260508112740 37 222 0.0 0.0 0.00 0.00 0.00 96 1042.8
20260508112233 37 221 0.0 0.0 0.00 0.00 0.00 95 1042.8
20260508111953 36 222 0.0 0.0 0.00 0.00 0.00 95 1042.7
20260508111437 36 222 0.0 0.0 0.00 0.00 0.00 96 1042.7
20260508110716 36 222 0.0 0.0 0.00 0.00 0.00 96 1042.7
20260508110209 35 222 0.0 0.0 0.00 0.00 0.00 95 1042.5
20260508105659 35 222 0.0 0.0 0.00 0.00 0.00 95 1042.5
20260508105159 35 222 0.0 0.0 0.00 0.00 0.00 95 1042.5
20260508104651 34 222 0.0 0.0 0.00 0.00 0.00 95 1042.4
20260508104406 34 222 0.0 0.0 0.00 0.00 0.00 94 1042.4
20260508103639 34 222 0.0 0.0 0.00 0.00 0.00 94 1042.4
20260508103134 34 222 0.0 0.0 0.00 0.00 0.00 94 1042.3
20260508102627 34 222 0.0 0.0 0.00 0.00 0.00 95 1042.3
20260508102117 34 222 0.0 0.0 0.00 0.00 0.00 94 1042.1
20260508101615 34 221 0.0 0.0 0.00 0.00 0.00 94 1042.1
20260508101108 34 222 0.0 0.0 0.00 0.00 0.00 94 1042.1
20260508100603 34 222 0.0 0.0 0.00 0.00 0.00 95 1042.2
20260508100057 34 222 0.0 0.0 0.00 0.00 0.00 94 1042.2
20260508095807 34 222 0.0 0.0 0.00 0.00 0.00 93 1042.2
20260508095045 34 222 0.0 0.0 0.00 0.00 0.00 93 1042.1
20260508094535 34 222 0.0 0.0 0.00 0.00 0.00 93 1042.1
20260508094033 34 222 0.0 0.0 0.00 0.00 0.00 93 1042.1
20260508093527 34 222 0.0 0.0 0.00 0.00 0.00 92 1042.2
20260508093021 34 222 0.0 0.0 0.00 0.00 0.00 92 1042.2
20260508092515 34 222 0.0 0.0 0.00 0.00 0.00 91 1042.2
20260508092009 35 222 0.0 0.0 0.00 0.00 0.00 91 1042.0
20260508091503 35 222 0.0 0.0 0.00 0.00 0.00 92 1042.0
20260508090952 35 222 0.0 0.0 0.00 0.00 0.00 91 1042.0
20260508090451 35 222 0.0 0.0 0.00 0.00 0.00 91 1041.8
20260508085945 35 222 0.0 0.0 0.00 0.00 0.00 91 1041.8
20260508085439 35 222 0.0 0.0 0.00 0.00 0.00 90 1041.8
20260508084932 36 222 0.0 0.0 0.00 0.00 0.00 90 1041.6
20260508084427 36 222 0.0 0.0 0.00 0.00 0.00 89 1041.6
20260508083920 36 222 0.0 0.0 0.00 0.00 0.00 89 1041.6
20260508083411 37 222 0.0 0.0 0.00 0.00 0.00 89 1041.3
20260508082909 37 222 0.0 0.0 0.00 0.00 0.00 88 1041.3
20260508082403 37 222 0.0 0.0 0.00 0.00 0.00 89 1041.3
20260508081857 37 222 0.0 0.0 0.00 0.00 0.00 88 1041.5
20260508081350 37 222 0.0 0.0 0.00 0.00 0.00 87 1041.5
20260508080846 38 222 0.0 0.0 0.00 0.00 0.00 87 1041.5
20260508080339 38 222 0.0 0.0 0.00 0.00 0.00 86 1041.7
20260508075828 38 222 0.0 0.0 0.00 0.00 0.00 86 1041.7
20260508075551 39 222 0.0 0.0 0.00 0.00 0.00 85 1041.7
20260508074820 39 222 0.0 0.0 0.00 0.00 0.00 85 1041.7
20260508074317 39 222 0.0 0.0 0.00 0.00 0.00 84 1041.7
20260508074035 40 222 0.0 0.0 0.00 0.00 0.00 83 1041.7
20260508073304 40 222 0.0 0.0 0.00 0.00 0.00 83 1041.5
20260508072756 41 222 0.0 0.0 0.00 0.00 0.00 82 1041.5
20260508072248 42 222 0.0 0.0 0.00 0.00 0.00 82 1041.5
20260508071743 42 222 0.0 0.0 0.00 0.00 0.00 82 1041.4
20260508071236 42 222 0.0 0.0 0.00 0.00 0.00 79 1041.4
20260508070948 42 222 0.0 0.0 0.00 0.00 0.00 79 1041.4
20260508070219 43 222 0.0 0.0 0.00 0.00 0.00 79 1041.3
20260508065719 43 222 0.0 0.0 0.00 0.00 0.00 79 1041.3
20260508065435 43 222 0.0 0.0 0.00 0.00 0.00 78 1041.3
20260508064942 43 221 0.0 0.0 0.00 0.00 0.00 78 1041.3
20260508064446 44 202 0.0 0.0 0.00 0.00 0.00 78 1041.3
20260508063718 44 202 0.0 0.0 0.00 0.00 0.00 78 1041.3
20260508063216 44 202 0.0 0.0 0.00 0.00 0.00 77 1041.3
20260508062717 45 202 0.0 0.0 0.00 0.00 0.00 76 1041.3
20260508062443 45 202 0.0 0.0 0.00 0.00 0.00 76 1041.3
20260508061931 45 201 0.0 3.0 0.00 0.00 0.00 75 1041.3
20260508061659 46 202 0.0 3.0 0.00 0.00 0.00 74 1041.3
20260508060713 45 132 0.0 1.0 0.00 0.00 0.00 76 1041.3
20260508060213 46 216 0.0 0.0 0.00 0.00 0.00 77 1041.2
20260508055713 46 216 0.0 0.0 0.00 0.00 0.00 75 1041.2
20260508055212 46 216 0.0 0.0 0.00 0.00 0.00 74 1041.2
20260508054935 47 216 0.0 0.0 0.00 0.00 0.00 74 1041.1
20260508054213 47 216 0.0 0.0 0.00 0.00 0.00 72 1041.1
20260508053713 47 216 0.0 1.0 0.00 0.00 0.00 70 1041.1
20260508053206 48 216 0.0 1.0 0.00 0.00 0.00 70 1041.0
20260508052655 49 215 0.0 2.0 0.00 0.00 0.00 68 1041.0
20260508052143 49 255 0.0 3.0 0.00 0.00 0.00 67 1041.0
20260508051632 48 236 0.0 3.0 0.00 0.00 0.00 68 1040.9
20260508051123 48 142 0.0 3.0 0.00 0.00 0.00 68 1040.9
20260508050847 48 261 0.0 3.0 0.00 0.00 0.00 70 1040.8
20260508050112 48 255 0.0 1.0 0.00 0.00 0.00 69 1040.8
20260508045559 48 272 0.0 1.0 0.00 0.00 0.00 71 1040.8
20260508045100 48 285 0.0 1.0 0.00 0.00 0.00 69 1040.7
20260508044553 48 33 0.0 0.0 0.00 0.00 0.00 70 1040.7
20260508044047 48 312 0.0 1.0 0.00 0.00 0.00 69 1040.7
20260508043803 48 21 0.0 2.0 0.00 0.00 0.00 69 1040.3
20260508043035 49 286 0.0 2.0 0.00 0.00 0.00 68 1040.3
20260508042528 49 296 0.0 1.0 0.00 0.00 0.00 70 1040.3
20260508042020 49 322 0.0 1.0 0.00 0.00 0.00 68 1040.2
20260508041516 49 252 0.0 1.0 0.00 0.00 0.00 68 1040.2
20260508041012 49 248 0.0 2.0 0.00 0.00 0.00 68 1040.2
20260508040505 49 264 0.0 2.0 0.00 0.00 0.00 69 1039.8
20260508040000 48 113 0.0 1.0 0.00 0.00 0.00 69 1039.8
20260508035453 47 305 0.0 1.0 0.00 0.00 0.00 74 1039.8
20260508034947 45 198 0.0 1.0 0.00 0.00 0.00 78 1039.7
20260508034436 44 198 0.0 1.0 0.00 0.00 0.00 81 1039.7
20260508033936 43 246 0.0 0.0 0.00 0.00 0.00 83 1039.7
20260508033428 43 246 0.0 0.0 0.00 0.00 0.00 85 1039.7
20260508032923 43 246 0.0 0.0 0.00 0.00 0.00 84 1039.7
20260508032416 43 246 0.0 0.0 0.00 0.00 0.00 84 1039.7
20260508031911 43 246 0.0 0.0 0.00 0.00 0.00 82 1039.7
20260508031404 44 246 0.0 0.0 0.00 0.00 0.00 82 1039.7
20260508030855 44 246 0.0 0.0 0.00 0.00 0.00 81 1039.7
20260508030840 44 246 0.0 0.0 0.00 0.00 0.00 81 1039.5
20260508025848 45 246 0.0 0.0 0.00 0.00 0.00 79 1039.5
20260508025340 45 246 0.0 0.0 0.00 0.00 0.00 77 1039.5
20260508024836 45 246 0.0 0.0 0.00 0.00 0.00 78 1039.4
20260508024328 45 246 0.0 0.0 0.00 0.00 0.00 77 1039.4
20260508023823 46 246 0.0 0.0 0.00 0.00 0.00 75 1039.4
20260508023311 46 246 0.0 0.0 0.00 0.00 0.00 75 1039.2
20260508022812 47 246 0.0 0.0 0.00 0.00 0.00 74 1039.2
20260508022307 48 246 0.0 0.0 0.00 0.00 0.00 71 1039.2
20260508022025 49 246 0.0 0.0 0.00 0.00 0.00 70 1039.1
20260508021252 49 246 0.0 0.0 0.00 0.00 0.00 69 1039.1
20260508020748 50 246 0.0 0.0 0.00 0.00 0.00 68 1039.1
20260508020240 51 246 0.0 0.0 0.00 0.00 0.00 66 1039.0
20260508020001 51 246 0.0 0.0 0.00 0.00 0.00 65 1039.0
20260508015706 52 246 0.0 0.0 0.00 0.00 0.00 65 1039.0
20260508014723 53 246 0.0 0.0 0.00 0.00 0.00 64 1038.9
20260508014217 53 246 0.0 0.0 0.00 0.00 0.00 68 1038.9
20260508013712 53 246 0.0 0.0 0.00 0.00 0.00 61 1038.9
20260508013204 54 246 0.0 0.0 0.00 0.00 0.00 62 1038.6
20260508012921 54 246 0.0 1.0 0.00 0.00 0.00 58 1038.6
20260508012148 55 246 0.0 1.0 0.00 0.00 0.00 58 1038.6
20260508011908 56 246 0.0 1.0 0.00 0.00 0.00 58 1038.3
20260508011140 56 246 0.0 1.0 0.00 0.00 0.00 56 1038.3
20260508010636 56 157 0.0 2.0 0.00 0.00 0.00 56 1038.3
20260508010356 56 244 0.0 3.0 0.00 0.00 0.00 55 1038.1
20260508005624 56 265 0.0 3.0 0.00 0.00 0.00 56 1038.1
20260508005116 55 277 0.0 3.0 0.00 0.00 0.00 59 1038.0
20260508004605 55 252 0.0 2.0 0.00 0.00 0.00 60 1038.0
20260508004104 55 146 0.0 0.0 0.00 0.00 0.00 61 1038.0
20260508003558 55 36 0.0 0.0 0.00 0.00 0.00 61 1037.7
20260508003052 56 295 0.0 1.0 0.00 0.00 0.00 58 1037.7
20260508003032 56 295 0.0 1.0 0.00 0.00 0.00 58 1037.7
20260508002040 56 116 0.0 1.0 0.00 0.00 0.00 62 1037.5
20260508001534 57 229 0.0 1.0 0.00 0.00 0.00 58 1037.5
20260508001024 58 242 0.0 2.0 0.00 0.00 0.00 56 1037.5
20260508000522 58 242 0.0 3.0 0.00 0.00 0.00 54 1037.2
20260508000016 58 138 0.0 3.0 0.00 0.00 0.00 53 1037.2
20260507235510 59 320 0.0 3.0 0.00 0.00 0.00 53 1037.2
20260507235004 59 271 0.0 3.0 0.00 0.00 0.00 50 1037.1
20260507234457 60 319 0.0 1.0 0.00 0.00 0.00 51 1037.1
20260507233952 61 302 0.0 3.0 0.00 0.00 0.00 53 1037.1
20260507233441 61 279 0.0 3.0 0.00 0.00 0.00 47 1037.0
20260507232940 62 35 0.0 2.0 0.00 0.00 0.00 47 1037.0
20260507232655 63 281 0.0 3.0 0.00 0.00 0.00 46 1037.0
20260507231928 63 270 1.0 4.0 0.00 0.00 0.00 45 1036.8
20260507231422 64 94 2.0 10.0 0.00 0.00 0.00 44 1036.8
20260507230916 64 296 2.0 10.0 0.00 0.00 0.00 46 1036.8
20260507230410 64 259 1.0 7.0 0.00 0.00 0.00 43 1036.5
20260507225901 65 192 1.0 5.0 0.00 0.00 0.00 44 1036.5
20260507225358 65 122 1.0 8.0 0.00 0.00 0.00 43 1036.5
20260507224859 66 146 2.0 8.0 0.00 0.00 0.00 42 1036.1
20260507224358 67 229 2.0 8.0 0.00 0.00 0.00 42 1036.1
20260507224132 68 238 2.0 8.0 0.00 0.00 0.00 42 1036.1
20260507223359 68 73 1.0 6.0 0.00 0.00 0.00 41 1036.0
20260507223125 68 219 2.0 8.0 0.00 0.00 0.00 41 1036.0
20260507222355 69 299 2.0 8.0 0.00 0.00 0.00 39 1036.0
20260507221856 69 9 2.0 8.0 0.00 0.00 0.00 39 1036.0
20260507221356 69 261 3.0 12.0 0.00 0.00 0.00 39 1036.0
20260507220855 68 292 3.0 12.0 0.00 0.00 0.00 40 1036.0
20260507220359 69 270 2.0 8.0 0.00 0.00 0.00 40 1035.7
20260507215859 68 250 2.0 6.0 0.00 0.00 0.00 41 1035.7
20260507215353 68 231 2.0 7.0 0.00 0.00 0.00 39 1035.7
20260507214843 68 288 3.0 7.0 0.00 0.00 0.00 38 1035.7
20260507214340 68 240 2.0 8.0 0.00 0.00 0.00 39 1035.7
20260507213840 69 242 2.0 8.0 0.00 0.00 0.00 39 1035.7
20260507213340 70 257 3.0 8.0 0.00 0.00 0.00 39 1035.5
20260507212839 70 257 3.0 8.0 0.00 0.00 0.00 39 1035.5
20260507212339 70 227 2.0 8.0 0.00 0.00 0.00 39 1035.5
20260507211840 69 251 2.0 7.0 0.00 0.00 0.00 41 1035.5
20260507211343 69 248 2.0 7.0 0.00 0.00 0.00 41 1035.5
20260507211100 69 270 2.0 5.0 0.00 0.00 0.00 39 1035.5
20260507210337 70 244 2.0 7.0 0.00 0.00 0.00 40 1035.5
20260507205826 69 248 3.0 7.0 0.00 0.00 0.00 37 1035.5
20260507205310 70 200 2.0 7.0 0.00 0.00 0.00 38 1035.5
20260507204758 70 270 1.0 8.0 0.00 0.00 0.00 45 1035.6
20260507204241 70 135 1.0 8.0 0.00 0.00 0.00 39 1035.6
20260507203730 69 193 1.0 8.0 0.00 0.00 0.00 39 1035.6
20260507203217 69 113 1.0 8.0 0.00 0.00 0.00 43 1035.9
20260507202709 69 302 2.0 9.0 0.00 0.00 0.00 42 1035.9
20260507202201 69 261 3.0 9.0 0.00 0.00 0.00 42 1035.9
20260507201656 69 240 4.0 10.0 0.00 0.00 0.00 42 1035.8
20260507201151 69 254 3.0 10.0 0.00 0.00 0.00 41 1035.8
20260507200643 70 283 1.0 3.0 0.00 0.00 0.00 42 1035.8
20260507200133 69 194 1.0 7.0 0.00 0.00 0.00 42 1036.0
20260507195631 69 36 2.0 7.0 0.00 0.00 0.00 40 1036.0
20260507195125 69 82 1.0 5.0 0.00 0.00 0.00 44 1036.1
20260507194619 69 284 2.0 5.0 0.00 0.00 0.00 41 1036.1
20260507194113 69 132 2.0 6.0 0.00 0.00 0.00 42 1036.1
20260507193607 69 248 3.0 9.0 0.00 0.00 0.00 49 1036.4
20260507193103 68 313 3.0 11.0 0.00 0.00 0.00 41 1036.4
20260507192603 68 242 2.0 11.0 0.00 0.00 0.00 42 1036.4
20260507192103 68 279 2.0 5.0 0.00 0.00 0.00 44 1036.5
20260507191601 67 117 1.0 5.0 0.00 0.00 0.00 45 1036.5
20260507191101 66 101 0.0 3.0 0.00 0.00 0.00 43 1036.5
20260507190601 65 334 0.0 2.0 0.00 0.00 0.00 45 1036.6
20260507190058 66 250 0.0 3.0 0.00 0.00 0.00 44 1036.6
20260507185556 66 267 1.0 6.0 0.00 0.00 0.00 47 1036.6
20260507185057 67 194 1.0 6.0 0.00 0.00 0.00 43 1036.8
20260507184556 67 246 2.0 7.0 0.00 0.00 0.00 46 1036.8
20260507184055 67 263 4.0 8.0 0.00 0.00 0.00 46 1036.8
20260507183555 67 42 3.0 8.0 0.00 0.00 0.00 43 1036.9
20260507183055 67 232 1.0 8.0 0.00 0.00 0.00 45 1036.9